Location: Betra
(48.4113°N, 8.6634°E)
Time: 10:19:18
(UTC+00:00)

SAR-Lupe-4 - Pass Details

Date: 06 August 2024
Orbit: 473 x 479 km, 98.1° (Epoch: 30 August)

Event Time Altitude Azimuth Distance (km) Brightness Sun altitude
Rises 03:06:47 0° 10° (N) 2,541 8.0 -9.3°
Reaches altitude 10° 03:08:52 10° 6° (N) 1,658 7.0 -9.0°
Maximum altitude 03:12:22 58° 288° (WNW) 564 3.7 -8.6°
Drops below altitude 10° 03:15:51 10° 208° (SSW) 1,647 5.7 -8.1°
Enters shadow 03:16:09 - 208° (SSW) 1,776 5.9 -8.1°
